GIA121 UBBB-OIII

Flight info

Callsign GIA121
Flight time N/A
Altitude 39000
Route BAMAK N72 PAXID
Aircraft B788/H-SDE1E2E3FGHIJ2J3J4J5M1RWXY/LB1D1

Departure

Time 2025-09-05 14:07
Airport Heydar Aliyev International Airport (UBBB)

Arrival

Time N/A
Airport Mehrabad International Airport (OIII)
Time Latitude Longitude Altitude Speed Heading
2025-09-05 13:48 40.46160 50.04830 20 ft 0 kts 56°
2025-09-05 13:57 40.46147 50.04803 26 ft 3 kts 59°
2025-09-05 13:57 40.46137 50.04780 24 ft 3 kts 62°
2025-09-05 13:58 40.46121 50.04739 26 ft 1 kts 63°
2025-09-05 13:58 40.46119 50.04733 26 ft 0 kts 63°
2025-09-05 14:01 40.46118 50.04743 26 ft 1 kts 88°
2025-09-05 14:02 40.46081 50.04799 23 ft 8 kts 141°
2025-09-05 14:02 40.46023 50.04825 22 ft 9 kts 182°
2025-09-05 14:02 40.45964 50.04804 23 ft 4 kts 199°
2025-09-05 14:03 40.45873 50.04757 20 ft 10 kts 202°
2025-09-05 14:04 40.45691 50.04528 20 ft 14 kts 251°
2025-09-05 14:04 40.45635 50.04309 19 ft 11 kts 256°
2025-09-05 14:04 40.45623 50.04197 17 ft 12 kts 278°
2025-09-05 14:05 40.45694 50.04115 19 ft 0 kts 346°
2025-09-05 14:05 40.45734 50.04102 19 ft 19 kts 346°
2025-09-05 14:06 40.47148 50.03636 378 ft 165 kts 352°
2025-09-05 14:06 40.49446 50.02935 2050 ft 194 kts 350°
2025-09-05 14:07 40.52562 50.01969 3206 ft 261 kts 347°
2025-09-05 14:08 40.57995 50.00817 6653 ft 276 kts 14°
2025-09-05 14:08 40.60865 50.04126 8729 ft 294 kts 67°
2025-09-05 14:09 40.60900 50.09584 10441 ft 317 kts 97°
2025-09-05 14:09 40.60195 50.15817 11007 ft 371 kts 98°
2025-09-05 14:09 40.59849 50.19258 11623 ft 380 kts 97°
2025-09-05 14:10 40.59126 50.26257 13163 ft 392 kts 98°
2025-09-05 14:10 40.57536 50.33143 14526 ft 401 kts 117°
2025-09-05 14:11 40.54973 50.39673 15874 ft 407 kts 128°
2025-09-05 14:12 40.47831 50.44958 17765 ft 401 kts 179°
2025-09-05 14:12 40.42219 50.45048 18880 ft 406 kts 184°
2025-09-05 14:13 40.37488 50.45015 19764 ft 411 kts 184°
2025-09-05 14:13 40.31719 50.45032 20773 ft 417 kts 184°
2025-09-05 14:14 40.25902 50.44868 21692 ft 418 kts 193°
2025-09-05 14:14 40.23087 50.43993 22144 ft 414 kts 204°
2025-09-05 14:14 40.17966 50.40628 23024 ft 413 kts 213°
2025-09-05 14:15 40.12921 50.36975 23810 ft 417 kts 213°
2025-09-05 14:16 40.05265 50.31442 24825 ft 421 kts 213°
2025-09-05 14:17 39.94921 50.23985 26105 ft 428 kts 214°
2025-09-05 14:18 39.75275 50.14044 28268 ft 465 kts 184°
2025-09-05 14:20 39.48889 50.15700 30531 ft 482 kts 184°
2025-09-05 14:22 39.40331 50.16235 31190 ft 485 kts 184°
2025-09-05 14:25 39.09226 50.18183 34269 ft 516 kts 181°
2025-09-05 14:26 38.84291 50.19729 36910 ft 509 kts 181°
2025-09-05 14:29 38.53007 50.21654 38965 ft 501 kts 180°
2025-09-05 14:30 38.27730 50.23196 38975 ft 535 kts 180°
2025-09-05 14:33 37.94194 50.25272 38973 ft 538 kts 179°
2025-09-05 14:34 37.68916 50.26843 38973 ft 538 kts 179°
2025-09-05 14:37 37.35208 50.28923 38959 ft 539 kts 179°
2025-09-05 14:38 37.09210 50.31975 38959 ft 542 kts 166°
2025-09-05 14:40 36.80280 50.42450 38963 ft 542 kts 165°
2025-09-05 14:42 36.51608 50.52759 39036 ft 528 kts 164°
2025-09-05 14:44 35.73905 50.80281 33873 ft 454 kts 164°
2025-09-05 14:45 35.43073 51.00916 23211 ft 421 kts 105°
2025-09-05 14:45 35.41234 51.14739 20092 ft 399 kts 102°
2025-09-05 14:46 35.39644 51.25975 17622 ft 378 kts 101°
2025-09-05 14:47 35.38314 51.35285 15651 ft 351 kts 101°
2025-09-05 14:47 35.37916 51.38145 15073 ft 332 kts 101°
2025-09-05 14:48 35.36818 51.45869 13533 ft 293 kts 100°
2025-09-05 14:48 35.36128 51.50718 12498 ft 285 kts 100°
2025-09-05 14:48 35.35794 51.53057 12001 ft 282 kts 100°
2025-09-05 14:49 35.35477 51.60168 10741 ft 285 kts 65°
2025-09-05 14:49 35.36665 51.62136 10667 ft 286 kts 37°
2025-09-05 14:50 35.40114 51.63322 10524 ft 245 kts 354°
2025-09-05 14:50 35.43467 51.63090 10372 ft 253 kts 355°
2025-09-05 14:51 35.46933 51.62846 9795 ft 249 kts 357°
2025-09-05 14:52 35.52120 51.62492 9089 ft 244 kts 358°
2025-09-05 14:52 35.53811 51.62378 8866 ft 245 kts 357°
2025-09-05 14:52 35.57188 51.62438 8705 ft 246 kts
2025-09-05 14:53 35.60615 51.62429 8729 ft 249 kts 347°
2025-09-05 14:53 35.63916 51.61314 8393 ft 240 kts 350°
2025-09-05 14:54 35.67016 51.60708 8194 ft 213 kts 339°
2025-09-05 14:54 35.68885 51.58338 7972 ft 200 kts 270°
2025-09-05 14:55 35.67188 51.55865 8080 ft 201 kts 205°
2025-09-05 14:56 35.63454 51.53683 8021 ft 198 kts 216°
2025-09-05 14:56 35.62814 51.52306 8015 ft 186 kts 265°
2025-09-05 14:57 35.63952 51.48535 8037 ft 156 kts 263°
2025-09-05 14:57 35.64010 51.47176 7951 ft 168 kts 291°
2025-09-05 14:57 35.65116 51.44481 6386 ft 180 kts 295°
2025-09-05 14:58 35.65871 51.41802 5369 ft 161 kts 298°
2025-09-05 14:58 35.66710 51.39327 4937 ft 157 kts 289°
2025-09-05 14:59 35.67438 51.36830 4483 ft 152 kts 286°
2025-09-05 14:59 35.68103 51.34621 4087 ft 145 kts 288°